Home   Weather   Ahrensburg   Past weeks

Flag for Germany Past Weather in Ahrensburg, Schleswig-Holstein, Germany — Yesterday and Last 2 Weeks

Now
37 °F

Clear.


Feels Like: 31 °F
Forecast: 40 / 57 °F
Wind: 8 mph from Southeast

Location: Hamburg-Fuhlsbuettel

Current Time: Apr 30, 2017 at 3:46:05 am

Latest Report: Apr 30, 2017 at 3:20 am


Visibility: 10 mi

Pressure: 30.12 "Hg

Humidity: 93%

Dew Point: 36 °F

Location of AhrensburgLocation

Past Weather in Ahrensburg — Graph

°F

Ahrensburg Temperature Yesterday

Maximum temperature yesterday: 50 °F (at 1:50 pm)
Minimum temperature yesterday: 34 °F (at 3:50 am)
Average temperature yesterday: 42 °F

High & Low Weather Summary for the Past Weeks

 TemperatureHumidityPressure
High55 °F (Apr 21, 12:50 pm)100% (Apr 15, 7:50 am)30.63 "Hg (Apr 15, 7:50 am)
Low25 °F (Apr 19, 5:50 am)40% (Apr 20, 2:50 pm)29.56 "Hg (Apr 25, 7:20 am)
Average42 °F78%30.05 "Hg
* Reported Apr 15 2:20 am — Apr 30 2:20 am, Ahrensburg, Weather by CustomWeather, © 2017

Note: Actual official high and low records may vary slightly from our data, if they occured in-between our weather recording intervals... More about our weather records

Advertising

Ahrensburg Weather History for the Previous 24 Hours

Scroll right to see more
 ConditionsComfort  
Time TempWeatherWind HumidityBarometerVisibility
2:20 am
Sun, Apr 30
39 °FClear.7 mph87%30.12 "Hg10 mi
1:50 am37 °FClear.7 mph93%30.12 "Hg10 mi
1:20 am36 °FClear.7 mph93%30.12 "Hg10 mi
12:50 am37 °FClear.7 mph93%30.12 "Hg10 mi
12:20 am37 °FClear.7 mph93%30.12 "Hg10 mi
11:50 pm
Sat, Apr 29
37 °FClear.7 mph93%30.12 "Hg10 mi
11:20 pm39 °FClear.6 mph93%30.12 "Hg10 mi
10:50 pm41 °FClear.5 mph87%30.09 "Hg10 mi
9:50 pm39 °FClear.1 mph93%30.09 "Hg10 mi
9:20 pm41 °FPassing clouds.No wind87%30.09 "HgN/A
8:50 pm43 °FPassing clouds.1 mph87%30.09 "HgN/A
8:20 pm45 °FPassing clouds.1 mph76%30.07 "HgN/A
7:50 pm48 °FPassing clouds.2 mph66%30.07 "HgN/A
7:20 pm46 °FScattered clouds.3 mph71%30.07 "HgN/A
6:50 pm46 °FScattered clouds.5 mph76%30.07 "HgN/A
6:20 pm46 °FScattered clouds.5 mph76%30.07 "HgN/A
5:50 pm46 °FScattered clouds.5 mph76%30.07 "HgN/A
5:20 pm48 °FScattered clouds.8 mph76%30.07 "HgN/A
4:50 pm45 °FSprinkles. Broken clouds.6 mph87%30.07 "HgN/A
4:20 pm48 °FSprinkles. Scattered clouds.13 mph66%30.04 "HgN/A
3:50 pm48 °FScattered showers. Passing clouds.7 mph71%30.04 "HgN/A
2:50 pm45 °FSprinkles. Broken clouds.16 mph76%30.04 "HgN/A
2:20 pm46 °FSprinkles. Broken clouds.15 mph71%30.04 "HgN/A
1:50 pm50 °FScattered showers. Broken clouds.12 mph58%30.01 "HgN/A
1:20 pm48 °FScattered showers. Scattered clouds.14 mph54%30.01 "HgN/A
12:50 pm48 °FScattered showers. Scattered clouds.13 mph58%30.01 "HgN/A
12:20 pm46 °FScattered showers. Partly sunny.9 mph66%30.01 "HgN/A
11:50 am46 °FScattered showers. Partly sunny.10 mph66%30.01 "HgN/A
11:20 am46 °FSprinkles. Partly sunny.8 mph66%30.01 "HgN/A
10:50 am46 °FSprinkles. Partly sunny.10 mph66%30.01 "HgN/A
9:50 am45 °FScattered clouds.8 mph71%30.01 "HgN/A
9:20 am45 °FScattered showers. Scattered clouds.9 mph81%29.98 "HgN/A
8:50 am43 °FScattered showers. Scattered clouds.9 mph81%29.98 "HgN/A
8:20 am43 °FPassing clouds.7 mph81%29.98 "HgN/A
7:50 am41 °FPassing clouds.7 mph87%29.98 "HgN/A
7:20 am39 °FScattered showers. Partly sunny.8 mph93%29.98 "HgN/A
6:50 am39 °FScattered showers. Scattered clouds.7 mph87%29.98 "HgN/A
6:20 am37 °FSprinkles. Partly sunny.5 mph93%29.98 "HgN/A
5:50 am37 °FSprinkles. Partly sunny.7 mph93%29.98 "HgN/A
5:20 am37 °FScattered showers. Partly cloudy.3 mph93%29.98 "HgN/A
4:50 am37 °FSprinkles. Partly cloudy.3 mph93%29.98 "HgN/A
4:20 am36 °FClear.5 mph93%29.95 "Hg10 mi
3:50 am34 °FClear.No wind100%29.95 "Hg10 mi
3:20 am36 °FPassing clouds.2 mph93%29.95 "HgN/A
Weather by CustomWeather, © 2017

See weather overviewHow to use our weather pages